Regional Weather Roundup
Issued by NWS

Home | Current Version | Previous Version | Text Only | Print | Product List | Glossary On
Versions: 1 2 3 4 5 6 7 8 9 10 11 12 13 14 15 16 17 18 19 20 21 22 23 24 25 26 27 28 29 30 31 32 33 34 35 36 37 38 39 40 41 42 43 44 45 46 47 48 49 50
000
ASUS43 KTOP 132108
RWRKS

WEATHER ROUNDUP FOR KANSAS
NATIONAL WEATHER SERVICE GOODLAND KS
300 PM CST WED DEC 13 2017

NOTE:  "FAIR" INDICATES FEW OR NO CLOUDS BELOW 12,000 FEET WITH NO
SIGNIFICANT WEATHER AND/OR OBSTRUCTIONS TO VISIBILITY.

KSZ001>006-013>018-027>032-041>047-132200-
NORTHWEST KANSAS

CITY           SKY/WX    TMP DP  RH WIND       PRES   REMARKS
GOODLAND       SUNNY     55  14  19 NW25G36   29.96F
HAYS           SUNNY     60  18  19 N22G28    29.91S
HILL CITY      SUNNY     58  17  20 N24G33    29.93F
RUSSELL        SUNNY     60  24  25 N22       29.89S
$$

KSZ061>065-074>080-084>089-132200-
SOUTHWEST KANSAS

CITY           SKY/WX    TMP DP  RH WIND       PRES   REMARKS
DODGE CITY     SUNNY     60  18  19 N16G28    29.95S
ELKHART        SUNNY     62  23  22 N14G20    30.01S
GARDEN CITY    SUNNY     59  15  18 N17G29    29.96F
GREAT BEND     SUNNY     60  23  24 NW24G30   29.90F
LIBERAL        SUNNY     60  18  19 N17       29.98F
PRATT          SUNNY     62  15  16 N21G31    29.90F
$$

KSZ066>073-081>083-090>101-132200-
SOUTHEAST KANSAS

CITY           SKY/WX    TMP DP  RH WIND       PRES   REMARKS
CHANUTE        SUNNY     64  26  23 NW12G25   29.82R
COFFEYVILLE    SUNNY     65  26  23 NW17G23   29.83R
HUTCHINSON     SUNNY     62  22  21 N18       29.87S
MEDICINE LODGE   N/A     65  19  17 N16G24    29.89S
NEWTON         SUNNY     60  23  24 NW22      29.86S
PARSONS        SUNNY     64  25  22 NW15G25   29.83R
WICHITA INTL   MOSUNNY   65  22  19 N18G26    29.86S
WICHITA JABRA  SUNNY     62  22  21 NW21G26   29.86S
WICHITA MCCONL SUNNY     63  21  20 N20G25    29.86R
WINFIELD       SUNNY     64  22  20 N17       29.87S
$$

KSZ007>012-019>026-033>040-048>060-102>105-132200-
NORTHEAST KANSAS

CITY           SKY/WX    TMP DP  RH WIND       PRES   REMARKS
CONCORDIA      SUNNY     57  24  28 N22G29    29.86S
EMPORIA        SUNNY     60  24  25 NW23G32   29.82R
LAWRENCE       SUNNY     60  26  27 NW25G33   29.78R
MANHATTAN      SUNNY     61  25  25 NW14G24   29.84S
MARYSVILLE     SUNNY     55  28  35 NW24G32   29.83R
OLATHE IND     SUNNY     59  28  30 NW18G25   29.78R
OLATHE EXE     SUNNY     57  27  31 NW25G35   29.77R
SALINA         SUNNY     62  24  23 NW24      29.88R
TOPEKA BILLARD SUNNY     59  27  29 NW23G30   29.79R
TOPEKA FORBES  SUNNY     61  27  27 NW21G31   29.80R
$$



USA.gov is the U.S. government's official web portal to all federal, state and local government web resources and services.